登录
首页 » matlab » BSOcodeV1

BSOcodeV1

于 2019-08-17 发布
0 239
下载积分: 1 下载次数: 13

代码说明:

说明:  利用头脑风暴算法,求解cec——2017 benchmark,是史玉回老师的源代码进行的修改(brain storm algorithm)

文件列表:

BSOcodeV1, 0 , 2019-07-22
BSOcodeV1\bso.xls, 11181568 , 2019-07-17
BSOcodeV1\bso2.m, 6258 , 2019-07-14
BSOcodeV1\cec17_func.cpp, 41819 , 2019-01-17
BSOcodeV1\cec17_func.mexw64, 51712 , 2019-07-17
BSOcodeV1\input_data, 0 , 2019-01-17
BSOcodeV1\input_data\M_10_D10.txt, 2520 , 2016-09-04
BSOcodeV1\input_data\M_10_D100.txt, 250200 , 2016-09-04
BSOcodeV1\input_data\M_10_D2.txt, 104 , 2016-09-04
BSOcodeV1\input_data\M_10_D20.txt, 10040 , 2016-09-04
BSOcodeV1\input_data\M_10_D30.txt, 22560 , 2016-09-04
BSOcodeV1\input_data\M_10_D50.txt, 62600 , 2016-09-04
BSOcodeV1\input_data\M_11_D10.txt, 2520 , 2016-09-04
BSOcodeV1\input_data\M_11_D100.txt, 250200 , 2016-09-04
BSOcodeV1\input_data\M_11_D30.txt, 22560 , 2016-09-04
BSOcodeV1\input_data\M_11_D50.txt, 62600 , 2016-09-04
BSOcodeV1\input_data\M_12_D10.txt, 2520 , 2016-09-04
BSOcodeV1\input_data\M_12_D100.txt, 250200 , 2016-09-04
BSOcodeV1\input_data\M_12_D30.txt, 22560 , 2016-09-04
BSOcodeV1\input_data\M_12_D50.txt, 62600 , 2016-09-04
BSOcodeV1\input_data\M_13_D10.txt, 2520 , 2016-09-04
BSOcodeV1\input_data\M_13_D100.txt, 250200 , 2016-09-04
BSOcodeV1\input_data\M_13_D30.txt, 22560 , 2016-09-04
BSOcodeV1\input_data\M_13_D50.txt, 62600 , 2016-09-04
BSOcodeV1\input_data\M_14_D10.txt, 2520 , 2016-09-04
BSOcodeV1\input_data\M_14_D100.txt, 250200 , 2016-09-04
BSOcodeV1\input_data\M_14_D30.txt, 22560 , 2016-09-04
BSOcodeV1\input_data\M_14_D50.txt, 62600 , 2016-09-04
BSOcodeV1\input_data\M_15_D10.txt, 2520 , 2016-09-04
BSOcodeV1\input_data\M_15_D100.txt, 250200 , 2016-09-04
BSOcodeV1\input_data\M_15_D30.txt, 22560 , 2016-09-04
BSOcodeV1\input_data\M_15_D50.txt, 62600 , 2016-09-04
BSOcodeV1\input_data\M_16_D10.txt, 2520 , 2016-09-04
BSOcodeV1\input_data\M_16_D100.txt, 250200 , 2016-09-04
BSOcodeV1\input_data\M_16_D30.txt, 22560 , 2016-09-04
BSOcodeV1\input_data\M_16_D50.txt, 62600 , 2016-09-04
BSOcodeV1\input_data\M_17_D10.txt, 2520 , 2016-09-04
BSOcodeV1\input_data\M_17_D100.txt, 250200 , 2016-09-04
BSOcodeV1\input_data\M_17_D30.txt, 22560 , 2016-09-04
BSOcodeV1\input_data\M_17_D50.txt, 62600 , 2016-09-04
BSOcodeV1\input_data\M_18_D10.txt, 2520 , 2016-09-04
BSOcodeV1\input_data\M_18_D100.txt, 250200 , 2016-09-04
BSOcodeV1\input_data\M_18_D30.txt, 22560 , 2016-09-04
BSOcodeV1\input_data\M_18_D50.txt, 62600 , 2016-09-04
BSOcodeV1\input_data\M_19_D10.txt, 2520 , 2016-09-04
BSOcodeV1\input_data\M_19_D100.txt, 250200 , 2016-09-04
BSOcodeV1\input_data\M_19_D30.txt, 22560 , 2016-09-04
BSOcodeV1\input_data\M_19_D50.txt, 62600 , 2016-09-04
BSOcodeV1\input_data\M_1_D10.txt, 2520 , 2016-09-04
BSOcodeV1\input_data\M_1_D100.txt, 250200 , 2016-09-04
BSOcodeV1\input_data\M_1_D2.txt, 104 , 2016-09-04
BSOcodeV1\input_data\M_1_D20.txt, 10040 , 2016-09-04
BSOcodeV1\input_data\M_1_D30.txt, 22560 , 2016-09-04
BSOcodeV1\input_data\M_1_D50.txt, 62600 , 2016-09-04
BSOcodeV1\input_data\M_20_D10.txt, 2520 , 2016-09-04
BSOcodeV1\input_data\M_20_D100.txt, 250200 , 2016-09-09
BSOcodeV1\input_data\M_20_D20.txt, 10040 , 2016-09-04
BSOcodeV1\input_data\M_20_D30.txt, 22560 , 2016-09-04
BSOcodeV1\input_data\M_20_D50.txt, 62600 , 2016-09-04
BSOcodeV1\input_data\M_21_D10.txt, 25200 , 2016-09-04
BSOcodeV1\input_data\M_21_D100.txt, 2502000 , 2016-09-04
BSOcodeV1\input_data\M_21_D2.txt, 832 , 2016-09-04
BSOcodeV1\input_data\M_21_D20.txt, 100400 , 2016-09-04
BSOcodeV1\input_data\M_21_D30.txt, 225600 , 2016-09-04
BSOcodeV1\input_data\M_21_D50.txt, 626000 , 2016-09-04
BSOcodeV1\input_data\M_22_D10.txt, 25200 , 2016-09-04
BSOcodeV1\input_data\M_22_D100.txt, 2502000 , 2016-09-04
BSOcodeV1\input_data\M_22_D2.txt, 832 , 2016-09-04
BSOcodeV1\input_data\M_22_D20.txt, 100400 , 2016-09-04
BSOcodeV1\input_data\M_22_D30.txt, 225600 , 2016-09-04
BSOcodeV1\input_data\M_22_D50.txt, 626000 , 2016-09-04
BSOcodeV1\input_data\M_23_D10.txt, 25200 , 2016-09-04
BSOcodeV1\input_data\M_23_D100.txt, 2502000 , 2016-09-04
BSOcodeV1\input_data\M_23_D2.txt, 832 , 2016-09-04
BSOcodeV1\input_data\M_23_D20.txt, 100400 , 2016-09-04
BSOcodeV1\input_data\M_23_D30.txt, 225600 , 2016-09-04
BSOcodeV1\input_data\M_23_D50.txt, 626000 , 2016-09-04
BSOcodeV1\input_data\M_24_D10.txt, 25200 , 2016-09-04
BSOcodeV1\input_data\M_24_D100.txt, 2502000 , 2016-09-04
BSOcodeV1\input_data\M_24_D2.txt, 832 , 2016-09-04
BSOcodeV1\input_data\M_24_D20.txt, 100400 , 2016-09-04
BSOcodeV1\input_data\M_24_D30.txt, 225600 , 2016-09-04
BSOcodeV1\input_data\M_24_D50.txt, 626000 , 2016-09-04
BSOcodeV1\input_data\M_25_D10.txt, 25200 , 2016-09-04
BSOcodeV1\input_data\M_25_D100.txt, 2502000 , 2016-09-04
BSOcodeV1\input_data\M_25_D2.txt, 832 , 2016-09-04
BSOcodeV1\input_data\M_25_D20.txt, 100400 , 2016-09-04
BSOcodeV1\input_data\M_25_D30.txt, 225600 , 2016-09-04
BSOcodeV1\input_data\M_25_D50.txt, 626000 , 2016-09-04
BSOcodeV1\input_data\M_26_D10.txt, 25200 , 2016-09-04
BSOcodeV1\input_data\M_26_D100.txt, 2502000 , 2016-09-04
BSOcodeV1\input_data\M_26_D2.txt, 832 , 2016-09-04
BSOcodeV1\input_data\M_26_D20.txt, 100400 , 2016-09-04
BSOcodeV1\input_data\M_26_D30.txt, 225600 , 2016-09-04
BSOcodeV1\input_data\M_26_D50.txt, 626000 , 2016-09-04
BSOcodeV1\input_data\M_27_D10.txt, 25200 , 2016-09-04
BSOcodeV1\input_data\M_27_D100.txt, 2502000 , 2016-09-04
BSOcodeV1\input_data\M_27_D2.txt, 832 , 2016-09-04
BSOcodeV1\input_data\M_27_D20.txt, 100400 , 2016-09-04
BSOcodeV1\input_data\M_27_D30.txt, 225600 , 2016-09-04

下载说明:请别用迅雷下载,失败请重下,重下不扣分!

发表评论

0 个回复

  • teste
    source fonte para melhor conhecimentos em estudos em linguagem dlephi 7
    2014-10-03 00:12:08下载
    积分:1
  • par_roll
    船舶参数横摇模型,与实验数据曲线的对比,包括20组实验数据(Parametric Rolling Model of ship, and compared with the experimental data curve, including 20 groups of experimental data )
    2013-12-26 15:34:07下载
    积分:1
  • SARimagingalgorithms
    SAR 成像多种算法仿SAR 成像多种算法仿真MATLAB源码真MATLAB源码(SAR imaging of a variety of algorithm simulation MATLAB simulation of SAR imaging of a variety of algorithms really MATLAB source source)
    2010-09-24 13:51:02下载
    积分:1
  • Matlab_fundamental_applied
    是MATLAB初学者的助手,介绍了MATLAB的窗口和命令,并有一些在通信方面的例子(MATLAB beginner' s assistant is introduced and the MATLAB command window, and there are some examples of communication)
    2009-05-19 16:02:21下载
    积分:1
  • multisurface_plasticity
    multisurface_plasticity
    2013-08-22 10:11:17下载
    积分:1
  • gibbs
    利用matlab进行GIBBS抽样分析来解决数据缺失的现象(GIBBS sampling analysis to solve the missing data using the MATLAB phenomenon)
    2014-11-24 23:40:56下载
    积分:1
  • autocorr
    利用Matlab求解Lang-Kobayashi方程(The use of Matlab in Lang-Kobayashi equation)
    2013-04-26 10:46:33下载
    积分:1
  • shuikuidiaodupso
    说明:  水电站中长期优化调度主要是在满足电力系统出力要求以及下游综合用水要求等的前提下,合理地安排水库各个月份的发电流量,使得调度期内的总发电量最大。即在给定预报入库流量过程线、下游综合用水流量过程线、调度期起始水位和终止水位等条件下,通过总水量的合理运用使调度期内水电站的总发电量最大。(Long-term optimal operation of hydropower stations mainly in the power system to meet the output requirements, and integrated water requirements downstream of the premise, reasonable arrangements for generating reservoir flow each month, making the scheduling period, the largest amount of total power generation. That is forecast in a given inflow hydrograph, downstream water discharge hydrograph synthesis, scheduling and termination of the initial water level and water level conditions, the total amount of water through the rational use of the scheduling period, the total generating capacity of the largest hydropower station.)
    2011-03-07 09:40:57下载
    积分:1
  • canny
    说明:  基于matlab的canny算子的边缘检测(failed to translate)
    2011-04-08 20:50:29下载
    积分:1
  • chapter1
    连续时间切换线性随机系统稳定最小驻留时间搜寻程序(Continuous-time switched linear stochastic system is stable minimum dwell time of the search procedures)
    2014-09-26 21:02:50下载
    积分:1
  • 696516资源总数
  • 106914会员总数
  • 0今日下载